Tracking 23726 objects as of 24-Sep-2021
HD Live streaming from Space Station
objects crossing your sky now

STARLINK-2192

Track STARLINK-2192 now!
10-day predictions
STARLINK-2192 is classified as:


NORAD ID: 47769
Int'l Code: 2021-017AZ
Perigee: 554.1 km
Apogee: 554.6 km
Inclination: 53.0 °
Period: 95.6 minutes
Semi major axis: 6925 km
RCS: Unknown
Launch date: March 4, 2021
Source: United States (US)
Launch site: AIR FORCE EASTERN TEST RANGE (AFETR)
aabbcc
Your satellite tracking list
Your tracking list is empty




NASA's NSSDC Master Catalog

Two Line Element Set (TLE):
1 47769U 21017AZ  21266.79281416  .00001448  00000-0  11604-3 0  9991
2 47769  53.0490 299.5447 0000368  92.3598 267.7433 15.06405567 32690
Source of the keplerian elements: AFSPC